This is the latest recevied weather packets stored in our database for station/object K5YNC. If no packets are shown the sender has not sent any weather packets the latest 10 day(s).
| Time | Temp. | Humidity | Pressure | Rain* | Wind** | Luminosity | Snow |
|---|---|---|---|---|---|---|---|
| 1777922778 | 26.67° C | 58% | 1010 hPa | 0 mm | - | 804 W/m² | - |
| 1777922475 | 26.67° C | 57% | 1009.9 hPa | 0 mm | - | 815 W/m² | - |
| 1777922174 | 26.67° C | 58% | 1009.9 hPa | 0 mm | - | 831 W/m² | - |
| 1777921869 | 26.67° C | 57% | 1010.2 hPa | 0 mm | - | 759 W/m² | - |
| 1777921566 | 26.11° C | 58% | 1010.1 hPa | 0 mm | - | 749 W/m² | - |
| 1777921262 | 26.11° C | 58% | 1010.2 hPa | 0 mm | - | 723 W/m² | - |
| 1777920959 | 25.56° C | 59% | 1010.2 hPa | 0 mm | - | 759 W/m² | - |
| 1777920655 | 25.56° C | 58% | 1010.3 hPa | 0 mm | - | 774 W/m² | - |
| 1777920351 | 25.56° C | 57% | 1010.3 hPa | 0 mm | - | 798 W/m² | - |
| 1777920047 | 25.56° C | 60% | 1010.4 hPa | 0 mm | - | 775 W/m² | - |
| 1777919744 | 25° C | 60% | 1010.4 hPa | 0 mm | - | 716 W/m² | - |
| 1777919442 | 25° C | 59% | 1010.5 hPa | 0 mm | - | 571 W/m² | - |
| 1777919139 | 25° C | 60% | 1010.6 hPa | 0 mm | - | 657 W/m² | - |
| 1777918836 | 25.56° C | 59% | 1010.7 hPa | 0 mm | - | 811 W/m² | - |
| 1777918533 | 25.56° C | 58% | 1010.6 hPa | 0 mm | - | 818 W/m² | - |
| 1777918231 | 25° C | 60% | 1010.9 hPa | 0 mm | - | 825 W/m² | - |
| 1777917930 | 25° C | 60% | 1011 hPa | 0 mm | - | 776 W/m² | - |
| 1777917628 | 25° C | 60% | 1011.1 hPa | 0 mm | - | 793 W/m² | - |
| 1777917325 | 25° C | 61% | 1011.1 hPa | 0 mm | - | 777 W/m² | - |
| 1777917022 | 24.44° C | 61% | 1011.4 hPa | 0 mm | - | 767 W/m² | - |
| 1777916720 | 24.44° C | 61% | 1011.5 hPa | 0 mm | - | 670 W/m² | - |
| 1777916416 | 23.89° C | 61% | 1011.7 hPa | 0 mm | - | 658 W/m² | - |
| 1777916113 | 23.89° C | 62% | 1011.6 hPa | 0 mm | - | 584 W/m² | - |
| 1777915811 | 23.89° C | 62% | 1011.7 hPa | 0 mm | - | 655 W/m² | - |
| 1777915507 | 23.89° C | 61% | 1011.6 hPa | 0 mm | - | 758 W/m² | - |
* Rain latest hour (hover to see other rain measurements)
** Current wind speed in m/s (hover to see current wind gust speed)